Simultaneous Nadir Overpasses (SNOs) Predictions

Prediction of SNOs between GOES-14 and NPP Satellite Orbit:

Table of predicted SNOs for the next 14.0 days since TLE Epoch: 3/16/2024
Index Date Time (GOES-14) GOES-14 Lat,Lon NPP Lat,Lon Distance(km) Time Diff (sec)
1 03/16/2024 20:24:17 -0.12,-108.46 0.78,-104.52 449.25 80
2 03/18/2024 08:46:06 0.13,-108.45 0.40,-109.80 153.42 80
3 03/19/2024 08:24:42 0.13,-108.45 -0.56,-105.26 362.55 80
4 03/20/2024 20:46:40 -0.14,-108.47 -0.61,-110.58 240.46 80
5 03/21/2024 20:30:37 -0.14,-108.47 0.42,-106.06 276.04 80
6 03/23/2024 08:52:25 0.15,-108.47 0.81,-111.32 325.51 80
7 03/24/2024 08:31:02 0.14,-108.48 -0.22,-106.80 190.74 80
8 03/25/2024 20:53:00 -0.15,-108.49 -0.93,-112.12 412.54 80
9 03/26/2024 20:36:55 -0.15,-108.50 0.04,-107.58 104.07 80
10 03/28/2024 08:58:45 0.15,-108.50 1.12,-112.87 497.03 80
11 03/29/2024 08:37:21 0.15,-108.50 0.08,-108.34 19.24 80
